Volver al catálogo

USA 414

ActivoMilitarVLEO
NORAD 61035·PAYLOAD·🇺🇸 United States

Lanzado Sep 6, 2024 desde Vandenberg Space Force Base

Loading…

Próximos Pases (próximas 24 horas)

TLE

ObsoletoSource: Mike McCants

Época: Aug 23, 2026, 00:24 UTC

1 61035U 24160Q   26235.01705749 0.00000000  00000-0  00000-0 0    02
2 61035  70.0170 204.0389 0002000  79.0860 280.9139 14.96713200    05

Sigue USA 414 en tiempo real con AllMySat

Download on the App Store